Regional Weather Roundup
Issued by NWS

Home | Current Version | Previous Version | Graphics & Text | Print | Product List | Glossary On
Versions: 1 2 3 4 5 6 7 8 9 10 11 12 13 14 15 16 17 18 19 20 21 22 23 24 25 26 27 28 29 30 31 32 33 34 35 36 37 38 39 40 41 42 43 44 45 46 47 48 49 50
000
ASUS43 KFSD 251910
RWRSD

WEATHER ROUNDUP FOR SOUTH DAKOTA
NATIONAL WEATHER SERVICE SIOUX FALLS SD
200 PM CDT SUN SEP 25 2016

NOTE: "FAIR" INDICATES FEW OR NO CLOUDS BELOW 12,000 FEET WITH NO
SIGNIFICANT WEATHER AND/OR OBSTRUCTIONS TO VISIBILITY.


SDZ001>005-009-010-012>017-252000-
NORTHWEST AND NORTH CENTRAL SOUTH DAKOTA

CITY           SKY/WX    TMP DP  RH WIND       PRES   REMARKS
BUFFALO          N/A     61  32  33 NW29      30.21F
MOBRIDGE       SUNNY     66  35  31 NW29G37   30.11R
$$

SDZ012>016-024>037-041>051-057-063-072>074-252000-
SOUTHWEST AND SOUTH CENTRAL SOUTH DAKOTA

CITY           SKY/WX    TMP DP  RH WIND       PRES   REMARKS
RAPID CTY ARPT SUNNY     62  27  26 NW25G39   30.32F
PIERRE         SUNNY     65  33  30 NW35G45   30.17R
CUSTER         SUNNY     54  24  31 NW13G21   30.37F
ELLSWORTH AFB  SUNNY     62  28  27 N29G37    30.31F
PHILIP         SUNNY     65  31  28 NW24G38   30.25F
PINE RIDGE     SUNNY     64  24  21 NW13G25   30.33F
WINNER         FAIR      68  33  27 NW25G37   30.20S
$$

SDZ004>011-016>023-039-040-252000-
NORTHEAST SOUTH DAKOTA

CITY           SKY/WX    TMP DP  RH WIND       PRES   REMARKS
ABERDEEN       CLOUDY    65  42  43 NW30G37   30.03S
WATERTOWN      CLOUDY    59  47  64 NW23G33   30.00S
BROOKINGS      CLOUDY    58  48  69 NW25      30.02R
SISSETON         N/A     62  46  55 NW25G33   29.94R
$$

SDZ017-020-022-023-036>040-048>070-252000-
SOUTHEAST SOUTH DAKOTA

CITY           SKY/WX    TMP DP  RH WIND       PRES   REMARKS
SIOUX FALLS    CLOUDY    62  49  62 NW24G32   30.06S
HURON          PTSUNNY   68  41  37 NW24G33   30.06S
CHAMBERLAIN    SUNNY     69  37  31 NW24G36   30.15F
MITCHELL       PTSUNNY   68  42  38 NW24G33   30.10S
YANKTON        PTSUNNY   64  46  52 NW23      30.10S
$$

ABBREVIATIONS USED IN REMARKS
   TC - TEMPERATURE IN CELSIUS
  WCI - WIND CHILL INDEX
   HX - HEAT INDEX
  VSB - VISIBILITY





USA.gov is the U.S. government's official web portal to all federal, state and local government web resources and services.